contact:dominique.lefevre@mio.osupytheas.fr, maurice.libes@osupytheas.fr, didier.mallarino@osupytheas.fr
Project:EMSO http://www.emso-fr.org/EMSO-France
Depth: 2436.0 m
Title:EMSO Ligure Ouest : Data MII capteur AQUADOPP
Date,Latitude,Longitude,X_East,Y_North,Z_Up,Amplitude_X,Amplitude_Y,Amplitude_Z,Batterie,SoundSpeed,Heading,Pitch,Roll,Pressure,TIS,Speed,Direction
, degrees North, degrees East, m.s-1, m.s-1,m.s-1, 1, 1, 1, Volt, m.s-1, degree, degree, degree, dbar, degree_C, m.s-1, degree
2021-07-28T00:04:03,42.805,6.029,-0.005,0.027,0.013,106.0,106.0,102.0,13.4,1505.2,328.4,-0.8,1.8,2470.729,13.28,0.027,349.5
2021-07-28T00:07:03,42.805,6.029,-0.023,0.031,-0.011,106.0,106.0,102.0,13.4,1505.2,329.2,-0.8,1.8,2470.71,13.28,0.038,323.4
2021-07-28T00:10:03,42.805,6.029,0.004,0.01,0.029,105.0,105.0,104.0,13.3,1505.2,326.3,-0.7,1.8,2470.702,13.28,0.01,21.8
2021-07-28T00:13:03,42.805,6.029,-0.019,0.021,0.018,104.0,104.0,104.0,13.4,1505.2,330.3,-0.8,1.8,2470.714,13.28,0.028,317.9
2021-07-28T00:16:03,42.805,6.029,-0.027,0.001,0.003,106.0,104.0,102.0,13.4,1505.2,327.1,-0.8,1.8,2470.667,13.28,0.027,272.1
2021-07-28T00:19:03,42.805,6.029,-0.014,0.026,0.01,104.0,106.0,103.0,13.4,1505.2,330.5,-0.7,1.8,2470.691,13.28,0.029,331.7
2021-07-28T00:22:03,42.805,6.029,-0.008,0.036,0.013,105.0,104.0,103.0,13.4,1505.2,327.4,-0.8,1.8,2470.663,13.28,0.036,347.5
2021-07-28T00:25:03,42.805,6.029,-0.008,0.021,-0.004,104.0,104.0,104.0,13.4,1505.2,328.6,-0.8,1.9,2470.637,13.28,0.022,339.1
2021-07-28T00:28:03,42.805,6.029,-0.007,0.038,0.011,106.0,106.0,102.0,13.4,1505.2,325.5,-0.8,1.8,2470.685,13.28,0.038,349.6
2021-07-28T00:31:03,42.805,6.029,-0.022,0.028,0.008,105.0,104.0,102.0,13.4,1505.2,326.7,-0.7,1.8,2470.662,13.28,0.035,321.8
2021-07-28T00:34:03,42.805,6.029,0.0,0.035,-0.021,105.0,105.0,102.0,13.4,1505.2,325.6,-0.7,1.8,2470.664,13.28,0.035,0.0
2021-07-28T00:37:03,42.805,6.029,0.013,0.02,0.043,103.0,104.0,103.0,13.4,1505.2,326.8,-0.8,1.8,2470.668,13.28,0.023,33.0
2021-07-28T00:40:03,42.805,6.029,-0.003,0.016,0.002,104.0,105.0,103.0,13.4,1505.2,329.1,-0.7,1.8,2470.663,13.28,0.016,349.4
2021-07-28T00:43:03,42.805,6.029,-0.016,0.026,0.034,105.0,105.0,103.0,13.4,1505.2,329.7,-0.8,1.8,2470.68,13.28,0.03,328.4
2021-07-28T00:46:03,42.805,6.029,-0.007,0.029,0.017,106.0,105.0,102.0,13.3,1505.2,329.0,-0.8,1.8,2470.666,13.28,0.029,346.4
2021-07-28T00:49:03,42.805,6.029,-0.01,0.025,0.008,105.0,107.0,101.0,13.3,1505.2,327.9,-0.8,1.8,2470.66,13.28,0.026,338.2
2021-07-28T00:52:03,42.805,6.029,0.0,0.021,0.004,105.0,105.0,103.0,13.4,1505.2,327.2,-0.8,1.8,2470.657,13.28,0.021,0.0
2021-07-28T00:55:03,42.805,6.029,0.0,0.019,-0.004,104.0,104.0,102.0,13.4,1505.2,326.0,-0.7,1.9,2470.616,13.28,0.019,0.0
2021-07-28T00:58:03,42.805,6.029,-0.016,0.035,0.003,105.0,104.0,101.0,13.4,1505.2,325.2,-0.8,1.8,2470.644,13.28,0.038,335.4
2021-07-28T01:04:03,42.805,6.029,-0.006,0.042,-0.01,107.0,108.0,104.0,13.3,1505.2,325.3,-0.7,1.8,2470.652,13.28,0.042,351.9
2021-07-28T01:07:03,42.805,6.029,-0.003,0.037,0.017,105.0,107.0,103.0,13.3,1505.2,328.1,-0.8,1.8,2470.668,13.28,0.037,355.4
2021-07-28T01:10:03,42.805,6.029,0.012,0.03,0.016,105.0,106.0,103.0,13.4,1505.2,326.6,-0.8,1.8,2470.62,13.28,0.032,21.8
2021-07-28T01:13:03,42.805,6.029,-0.016,0.016,0.006,106.0,106.0,103.0,13.4,1505.2,326.3,-0.8,1.8,2470.647,13.28,0.022,315.0
2021-07-28T01:16:03,42.805,6.029,-0.014,0.039,0.007,105.0,105.0,103.0,13.3,1505.2,330.1,-0.7,1.8,2470.615,13.28,0.041,340.3
2021-07-28T01:19:03,42.805,6.029,0.0,0.016,-0.004,105.0,105.0,103.0,13.3,1505.2,328.5,-0.8,1.8,2470.644,13.28,0.016,0.0
2021-07-28T01:22:03,42.805,6.029,-0.027,0.018,-0.004,103.0,104.0,103.0,13.4,1505.2,330.1,-0.7,1.8,2470.622,13.28,0.032,303.7
2021-07-28T01:25:03,42.805,6.029,0.003,0.034,0.028,105.0,106.0,103.0,13.4,1505.2,330.4,-0.7,1.8,2470.621,13.28,0.034,5.0
2021-07-28T01:28:03,42.805,6.029,-0.031,0.04,0.026,105.0,106.0,103.0,13.4,1505.2,327.0,-0.7,1.8,2470.639,13.28,0.05,322.2
2021-07-28T01:31:03,42.805,6.029,-0.014,0.016,-0.003,106.0,105.0,103.0,13.4,1505.2,325.8,-0.7,1.8,2470.643,13.28,0.021,318.8
2021-07-28T01:34:03,42.805,6.029,-0.006,0.037,0.006,105.0,105.0,104.0,13.4,1505.2,328.8,-0.8,1.8,2470.605,13.28,0.037,350.8
2021-07-28T01:37:03,42.805,6.029,-0.009,0.022,-0.002,104.0,106.0,104.0,13.4,1505.2,328.2,-0.8,1.8,2470.605,13.28,0.023,337.8
2021-07-28T01:40:03,42.805,6.029,-0.01,0.027,0.011,105.0,104.0,104.0,13.4,1505.2,330.7,-0.7,1.8,2470.571,13.28,0.028,339.7
2021-07-28T01:43:03,42.805,6.029,-0.012,0.032,0.009,104.0,105.0,104.0,13.3,1505.2,330.0,-0.7,1.9,2470.597,13.28,0.034,339.4
2021-07-28T01:46:03,42.805,6.029,-0.007,0.014,0.012,105.0,105.0,103.0,13.3,1505.2,328.8,-0.7,1.8,2470.61,13.28,0.015,333.4
2021-07-28T01:49:03,42.805,6.029,-0.015,0.034,-0.019,106.0,105.0,103.0,13.4,1505.2,328.4,-0.7,1.8,2470.601,13.28,0.037,336.2
2021-07-28T01:52:03,42.805,6.029,-0.028,0.025,0.011,105.0,106.0,102.0,13.3,1505.2,326.3,-0.7,1.8,2470.631,13.28,0.037,311.8
2021-07-28T01:55:03,42.805,6.029,-0.024,0.049,0.023,105.0,106.0,103.0,13.4,1505.2,326.6,-0.7,1.9,2470.596,13.28,0.054,333.9
2021-07-28T01:58:03,42.805,6.029,-0.004,0.022,0.011,105.0,107.0,104.0,13.3,1505.2,328.8,-0.7,1.8,2470.62,13.28,0.022,349.7
2021-07-28T02:04:03,42.805,6.029,-0.008,0.033,-0.011,107.0,104.0,103.0,13.4,1505.2,326.6,-0.8,1.8,2470.633,13.28,0.033,346.4
2021-07-28T02:07:03,42.805,6.029,-0.008,0.036,-0.016,105.0,105.0,103.0,13.3,1505.2,328.2,-0.8,1.8,2470.599,13.28,0.036,347.5
2021-07-28T02:10:03,42.805,6.029,0.001,0.023,-0.007,105.0,104.0,102.0,13.4,1505.2,327.6,-0.7,1.8,2470.626,13.28,0.023,2.5
2021-07-28T02:13:03,42.805,6.029,-0.001,0.031,0.009,105.0,104.0,104.0,13.4,1505.2,327.1,-0.8,1.8,2470.573,13.28,0.031,358.2
2021-07-28T02:16:03,42.805,6.029,-0.007,0.032,0.02,104.0,104.0,103.0,13.4,1505.2,327.8,-0.8,1.8,2470.623,13.28,0.032,347.7
2021-07-28T02:19:03,42.805,6.029,-0.001,0.031,0.013,106.0,105.0,103.0,13.4,1505.2,326.5,-0.8,1.8,2470.594,13.28,0.031,358.2
2021-07-28T02:22:03,42.805,6.029,-0.005,0.043,-0.008,106.0,106.0,103.0,13.4,1505.2,328.9,-0.8,1.9,2470.585,13.28,0.043,353.4
2021-07-28T02:25:03,42.805,6.029,-0.027,0.027,-0.006,105.0,106.0,103.0,13.4,1505.2,327.8,-0.7,1.8,2470.613,13.28,0.038,315.0
2021-07-28T02:28:03,42.805,6.029,-0.028,0.012,0.01,105.0,105.0,103.0,13.4,1505.2,326.1,-0.7,1.9,2470.6,13.28,0.03,293.2
2021-07-28T02:31:03,42.805,6.029,-0.04,0.041,0.029,105.0,105.0,103.0,13.4,1505.2,327.6,-0.7,1.8,2470.596,13.28,0.057,315.7
2021-07-28T02:34:03,42.805,6.029,-0.021,0.05,0.026,104.0,105.0,103.0,13.4,1505.2,327.1,-0.7,1.8,2470.558,13.28,0.054,337.2
2021-07-28T02:37:03,42.805,6.029,-0.004,0.032,0.007,105.0,105.0,102.0,13.4,1505.2,328.9,-0.8,1.8,2470.569,13.28,0.032,352.9
2021-07-28T02:40:03,42.805,6.029,-0.013,0.03,-0.015,105.0,104.0,103.0,13.4,1505.2,327.8,-0.7,1.8,2470.567,13.28,0.032,336.6
2021-07-28T02:43:03,42.805,6.029,0.006,0.026,0.016,105.0,105.0,103.0,13.3,1505.2,325.0,-0.7,1.8,2470.57,13.28,0.026,13.0
2021-07-28T02:46:03,42.805,6.029,-0.017,0.042,0.009,105.0,105.0,103.0,13.4,1505.2,329.1,-0.7,1.8,2470.566,13.28,0.045,338.0
2021-07-28T02:49:03,42.805,6.029,-0.028,0.031,0.01,103.0,106.0,103.0,13.3,1505.2,328.2,-0.8,1.8,2470.554,13.28,0.041,317.9
2021-07-28T02:52:03,42.805,6.029,-0.011,0.031,-0.008,106.0,106.0,103.0,13.4,1505.2,327.1,-0.7,1.8,2470.567,13.28,0.032,340.5
2021-07-28T02:55:03,42.805,6.029,-0.012,0.035,-0.015,105.0,106.0,102.0,13.4,1505.2,330.3,-0.8,1.8,2470.555,13.28,0.037,341.1
2021-07-28T02:58:03,42.805,6.029,-0.024,0.028,0.023,105.0,107.0,103.0,13.4,1505.2,327.4,-0.8,1.8,2470.57,13.28,0.036,319.4
2021-07-28T03:04:03,42.805,6.029,-0.014,0.034,0.042,106.0,106.0,102.0,13.3,1505.2,325.2,-0.8,1.8,2470.602,13.28,0.036,337.6
2021-07-28T03:07:03,42.805,6.029,-0.008,0.02,0.015,105.0,105.0,103.0,13.4,1505.2,330.4,-0.7,1.8,2470.586,13.28,0.021,338.2
2021-07-28T03:10:03,42.805,6.029,-0.009,0.033,-0.014,106.0,105.0,103.0,13.3,1505.2,327.4,-0.7,1.9,2470.605,13.28,0.034,344.7
2021-07-28T03:13:03,42.805,6.029,-0.018,0.027,0.002,105.0,106.0,102.0,13.4,1505.2,325.3,-0.7,1.8,2470.595,13.28,0.032,326.3
2021-07-28T03:16:03,42.805,6.029,-0.006,0.032,0.015,105.0,105.0,103.0,13.3,1505.2,330.7,-0.7,1.8,2470.522,13.28,0.032,349.4
2021-07-28T03:19:03,42.805,6.029,-0.017,0.018,0.0,105.0,106.0,103.0,13.4,1505.2,328.2,-0.8,1.8,2470.612,13.28,0.024,316.6
2021-07-28T03:22:03,42.805,6.029,-0.029,0.039,0.0,106.0,105.0,103.0,13.3,1505.2,330.0,-0.7,1.8,2470.555,13.28,0.048,323.4
2021-07-28T03:25:03,42.805,6.029,-0.013,0.028,-0.004,105.0,104.0,102.0,13.4,1505.2,328.4,-0.8,1.8,2470.561,13.28,0.03,335.1
2021-07-28T03:28:03,42.805,6.029,-0.007,0.033,0.024,104.0,105.0,102.0,13.3,1505.2,329.4,-0.7,1.8,2470.566,13.28,0.033,348.0
2021-07-28T03:31:03,42.805,6.029,-0.01,0.053,0.02,105.0,104.0,102.0,13.3,1505.2,328.6,-0.8,1.8,2470.559,13.28,0.053,349.3
2021-07-28T03:34:03,42.805,6.029,-0.032,0.038,0.017,104.0,104.0,101.0,13.4,1505.2,328.3,-0.8,1.9,2470.568,13.28,0.049,319.9
2021-07-28T03:37:03,42.805,6.029,-0.033,0.03,0.018,105.0,104.0,101.0,13.4,1505.2,325.6,-0.7,1.8,2470.53,13.28,0.044,312.3
2021-07-28T03:40:03,42.805,6.029,-0.024,0.052,0.037,104.0,105.0,101.0,13.4,1505.2,327.5,-0.8,1.8,2470.54,13.28,0.057,335.2
2021-07-28T03:43:03,42.805,6.029,-0.016,0.032,0.004,104.0,104.0,102.0,13.4,1505.2,325.9,-0.8,1.8,2470.519,13.28,0.035,333.4
2021-07-28T03:46:03,42.805,6.029,-0.029,0.011,0.006,105.0,104.0,103.0,13.4,1505.2,328.4,-0.8,1.8,2470.558,13.28,0.031,290.8
2021-07-28T03:49:03,42.805,6.029,-0.015,0.036,0.03,103.0,106.0,102.0,13.4,1505.2,327.9,-0.7,1.8,2470.566,13.28,0.039,337.4
2021-07-28T03:52:03,42.805,6.029,-0.021,0.031,-0.009,105.0,104.0,102.0,13.3,1505.2,328.6,-0.8,1.9,2470.53,13.28,0.037,325.9
2021-07-28T03:55:03,42.805,6.029,-0.031,0.025,-0.005,106.0,104.0,103.0,13.4,1505.2,328.8,-0.8,1.8,2470.517,13.28,0.039,308.9
2021-07-28T03:58:03,42.805,6.029,0.002,0.028,0.0,104.0,105.0,102.0,13.4,1505.2,327.6,-0.7,1.8,2470.524,13.28,0.028,4.1
2021-07-28T04:04:03,42.805,6.029,-0.001,0.025,0.043,104.0,105.0,102.0,13.3,1505.2,330.3,-0.7,1.8,2470.556,13.28,0.025,357.7
2021-07-28T04:07:03,42.805,6.029,-0.017,0.026,-0.016,105.0,105.0,102.0,13.4,1505.2,325.0,-0.8,1.8,2470.546,13.28,0.031,326.8
2021-07-28T04:10:03,42.805,6.029,-0.015,0.032,0.011,104.0,105.0,102.0,13.3,1505.2,326.9,-0.7,1.8,2470.544,13.28,0.035,334.9
2021-07-28T04:13:03,42.805,6.029,-0.003,0.029,0.018,104.0,105.0,103.0,13.3,1505.2,329.2,-0.7,1.8,2470.535,13.28,0.029,354.1
2021-07-28T04:16:03,42.805,6.029,-0.013,0.027,-0.003,104.0,105.0,102.0,13.4,1505.2,330.2,-0.7,1.8,2470.535,13.28,0.029,334.3
2021-07-28T04:19:03,42.805,6.029,-0.005,0.021,0.012,104.0,105.0,103.0,13.3,1505.2,328.9,-0.8,1.8,2470.545,13.28,0.021,346.6
2021-07-28T04:22:03,42.805,6.029,0.001,0.016,0.006,105.0,105.0,101.0,13.4,1505.2,327.6,-0.7,1.8,2470.525,13.28,0.016,3.6
2021-07-28T04:25:03,42.805,6.029,-0.038,0.012,-0.011,103.0,106.0,103.0,13.4,1505.2,324.8,-0.8,1.8,2470.533,13.28,0.039,287.5
2021-07-28T04:28:03,42.805,6.029,-0.02,0.018,0.006,103.0,104.0,103.0,13.4,1505.2,327.0,-0.7,1.8,2470.549,13.28,0.026,312.0
2021-07-28T04:31:03,42.805,6.029,-0.001,0.037,0.029,105.0,103.0,103.0,13.3,1505.2,328.0,-0.8,1.8,2470.523,13.28,0.037,358.5
2021-07-28T04:34:03,42.805,6.029,-0.018,0.033,0.002,103.0,105.0,103.0,13.4,1505.2,328.3,-0.8,1.8,2470.561,13.28,0.037,331.4
2021-07-28T04:37:03,42.805,6.029,-0.016,0.011,0.007,103.0,106.0,102.0,13.4,1505.2,326.5,-0.8,1.8,2470.535,13.28,0.019,304.5
2021-07-28T04:40:03,42.805,6.029,-0.026,0.033,0.021,104.0,103.0,103.0,13.4,1505.2,325.4,-0.7,1.8,2470.516,13.28,0.042,321.8
2021-07-28T04:43:03,42.805,6.029,-0.011,0.025,-0.002,104.0,105.0,103.0,13.4,1505.2,326.8,-0.8,1.8,2470.521,13.28,0.027,336.3
2021-07-28T04:46:03,42.805,6.029,-0.012,0.028,0.009,104.0,106.0,103.0,13.3,1505.2,329.3,-0.8,1.8,2470.528,13.28,0.03,336.8
2021-07-28T04:49:03,42.805,6.029,-0.016,0.048,-0.007,103.0,106.0,101.0,13.4,1505.2,328.5,-0.8,1.8,2470.543,13.28,0.05,341.6
2021-07-28T04:52:03,42.805,6.029,-0.011,0.034,0.01,105.0,105.0,102.0,13.4,1505.2,328.7,-0.7,1.8,2470.519,13.28,0.035,342.1
2021-07-28T04:55:03,42.805,6.029,-0.033,0.024,-0.004,105.0,104.0,102.0,13.3,1505.2,328.2,-0.7,1.8,2470.513,13.28,0.04,306.0
2021-07-28T04:58:03,42.805,6.029,0.002,0.021,0.01,103.0,105.0,103.0,13.3,1505.2,326.1,-0.7,1.9,2470.52,13.28,0.021,5.4
2021-07-28T05:04:03,42.805,6.029,0.015,0.024,0.001,104.0,104.0,103.0,13.4,1505.2,327.1,-0.8,1.8,2470.551,13.28,0.028,32.0
2021-07-28T05:07:03,42.805,6.029,-0.016,0.045,0.014,104.0,105.0,103.0,13.4,1505.2,327.0,-0.8,1.8,2470.535,13.28,0.047,340.4
2021-07-28T05:10:03,42.805,6.029,0.001,0.029,-0.03,103.0,105.0,103.0,13.4,1505.2,326.4,-0.7,1.8,2470.521,13.28,0.029,2.0
2021-07-28T05:13:03,42.805,6.029,-0.015,0.033,-0.004,104.0,105.0,104.0,13.4,1505.2,325.1,-0.8,1.8,2470.534,13.28,0.036,335.6
2021-07-28T05:16:03,42.805,6.029,-0.016,0.025,0.035,105.0,104.0,102.0,13.4,1505.2,327.0,-0.7,1.8,2470.506,13.28,0.029,327.4
2021-07-28T05:19:03,42.805,6.029,-0.01,0.0,-0.004,106.0,105.0,103.0,13.4,1505.2,325.5,-0.8,1.8,2470.497,13.28,0.01,270.0
2021-07-28T05:22:03,42.805,6.029,-0.004,0.037,0.01,105.0,104.0,102.0,13.4,1505.2,327.9,-0.7,1.8,2470.543,13.28,0.037,353.8
2021-07-28T05:25:03,42.805,6.029,-0.02,0.037,0.009,104.0,105.0,101.0,13.4,1505.2,328.8,-0.8,1.8,2470.534,13.28,0.042,331.6
2021-07-28T05:28:03,42.805,6.029,-0.035,0.045,0.03,105.0,104.0,102.0,13.4,1505.2,326.5,-0.7,1.8,2470.523,13.28,0.057,322.1
2021-07-28T05:31:03,42.805,6.029,0.0,0.023,0.0,104.0,103.0,102.0,13.3,1505.2,327.6,-0.8,1.8,2470.471,13.28,0.023,0.0
2021-07-28T05:34:03,42.805,6.029,-0.018,0.027,0.014,104.0,105.0,102.0,13.3,1505.2,328.7,-0.8,1.8,2470.521,13.28,0.032,326.3
2021-07-28T05:37:03,42.805,6.029,-0.024,0.031,0.0,105.0,103.0,103.0,13.3,1505.2,326.7,-0.8,1.8,2470.486,13.28,0.039,322.3
2021-07-28T05:40:03,42.805,6.029,-0.018,0.028,-0.001,105.0,105.0,103.0,13.4,1505.2,327.7,-0.7,1.8,2470.542,13.28,0.033,327.3
2021-07-28T05:43:03,42.805,6.029,-0.002,0.037,0.014,105.0,105.0,102.0,13.3,1505.2,326.1,-0.8,1.8,2470.572,13.28,0.037,356.9
2021-07-28T05:46:03,42.805,6.029,-0.013,0.041,-0.011,105.0,105.0,102.0,13.3,1505.2,330.7,-0.7,1.8,2470.528,13.28,0.043,342.4
2021-07-28T05:49:03,42.805,6.029,-0.011,0.04,0.006,105.0,105.0,103.0,13.3,1505.2,327.9,-0.8,1.8,2470.476,13.28,0.041,344.6
2021-07-28T05:52:03,42.805,6.029,0.003,0.036,0.002,105.0,104.0,101.0,13.3,1505.2,330.2,-0.7,1.8,2470.511,13.28,0.036,4.8
2021-07-28T05:55:03,42.805,6.029,-0.024,0.024,0.011,105.0,104.0,103.0,13.4,1505.2,328.5,-0.8,1.8,2470.499,13.28,0.033,315.0
2021-07-28T05:58:03,42.805,6.029,-0.023,0.028,-0.013,104.0,105.0,102.0,13.3,1505.2,330.4,-0.7,1.8,2470.553,13.28,0.036,320.6
2021-07-28T06:04:03,42.805,6.029,-0.021,0.041,0.031,106.0,103.0,102.0,13.4,1505.2,329.2,-0.7,1.8,2470.522,13.28,0.046,332.9
2021-07-28T06:07:03,42.805,6.029,-0.011,0.03,0.018,105.0,105.0,102.0,13.3,1505.2,328.8,-0.7,1.8,2470.557,13.28,0.031,339.9
2021-07-28T06:10:03,42.805,6.029,0.0,0.042,-0.004,104.0,105.0,102.0,13.3,1505.2,329.9,-0.8,1.8,2470.543,13.28,0.042,0.0
2021-07-28T06:13:03,42.805,6.029,-0.025,0.032,-0.009,103.0,104.0,103.0,13.4,1505.2,328.9,-0.8,1.8,2470.53,13.28,0.04,322.0
2021-07-28T06:16:03,42.805,6.029,-0.011,0.025,0.006,105.0,103.0,101.0,13.3,1505.2,328.1,-0.8,1.8,2470.523,13.28,0.027,336.3
2021-07-28T06:19:03,42.805,6.029,-0.005,0.044,0.023,105.0,105.0,102.0,13.4,1505.2,330.2,-0.7,1.8,2470.518,13.28,0.044,353.5
2021-07-28T06:22:03,42.805,6.029,-0.006,0.047,0.002,105.0,104.0,102.0,13.4,1505.2,328.4,-0.8,1.8,2470.531,13.28,0.047,352.7
2021-07-28T06:25:03,42.805,6.029,-0.015,0.04,-0.001,105.0,106.0,103.0,13.4,1505.2,330.0,-0.8,1.8,2470.508,13.28,0.042,339.4
2021-07-28T06:28:03,42.805,6.029,-0.009,0.033,0.023,104.0,104.0,102.0,13.4,1505.2,328.1,-0.7,1.8,2470.547,13.28,0.034,344.7
2021-07-28T06:31:03,42.805,6.029,-0.023,0.027,0.016,105.0,104.0,102.0,13.3,1505.2,327.1,-0.8,1.8,2470.554,13.28,0.035,319.6
2021-07-28T06:34:03,42.805,6.029,0.007,0.023,-0.014,103.0,106.0,104.0,13.3,1505.2,327.9,-0.7,1.9,2470.545,13.28,0.024,16.9
2021-07-28T06:37:03,42.805,6.029,0.0,0.032,0.021,105.0,105.0,102.0,13.4,1505.2,330.7,-0.8,1.9,2470.557,13.28,0.032,0.0
2021-07-28T06:40:03,42.805,6.029,-0.024,0.042,0.007,105.0,104.0,102.0,13.4,1505.2,327.1,-0.7,1.9,2470.543,13.28,0.048,330.3
2021-07-28T06:43:03,42.805,6.029,-0.038,0.01,-0.006,104.0,106.0,103.0,13.4,1505.2,329.0,-0.8,1.8,2470.477,13.28,0.039,284.7
2021-07-28T06:46:03,42.805,6.029,-0.004,0.049,0.003,104.0,104.0,103.0,13.4,1505.2,329.1,-0.8,1.8,2470.543,13.28,0.049,355.3
2021-07-28T06:49:03,42.805,6.029,-0.002,0.031,0.025,105.0,103.0,102.0,13.3,1505.2,326.1,-0.8,1.8,2470.572,13.28,0.031,356.3
2021-07-28T06:52:03,42.805,6.029,-0.003,0.022,0.026,105.0,104.0,103.0,13.3,1505.2,325.2,-0.8,1.8,2470.543,13.28,0.022,352.2
2021-07-28T06:55:03,42.805,6.029,-0.017,0.026,-0.001,105.0,106.0,103.0,13.3,1505.2,326.4,-0.8,1.8,2470.571,13.28,0.031,326.8
2021-07-28T06:58:03,42.805,6.029,-0.014,0.029,0.021,105.0,104.0,103.0,13.4,1505.2,329.7,-0.8,1.8,2470.539,13.28,0.032,334.2
2021-07-28T07:04:03,42.805,6.029,0.0,0.023,0.036,106.0,105.0,101.0,13.3,1505.2,325.5,-0.8,1.8,2470.596,13.28,0.023,0.0
2021-07-28T07:07:03,42.805,6.029,-0.009,0.038,0.0,105.0,104.0,102.0,13.4,1505.2,327.7,-0.7,1.8,2470.602,13.28,0.039,346.7
2021-07-28T07:10:03,42.805,6.029,-0.016,0.026,0.013,105.0,104.0,103.0,13.4,1505.2,326.0,-0.8,1.8,2470.559,13.28,0.03,328.4
2021-07-28T07:13:03,42.805,6.029,-0.018,0.034,-0.004,105.0,104.0,102.0,13.3,1505.2,327.6,-0.7,1.8,2470.56,13.28,0.038,332.1
2021-07-28T07:16:03,42.805,6.029,0.005,0.032,0.006,104.0,105.0,102.0,13.4,1505.2,325.6,-0.7,1.8,2470.58,13.28,0.032,8.9
2021-07-28T07:19:03,42.805,6.029,-0.019,0.025,-0.007,104.0,104.0,103.0,13.3,1505.2,328.3,-0.7,1.8,2470.568,13.28,0.031,322.8
2021-07-28T07:22:03,42.805,6.029,-0.027,0.04,-0.004,103.0,104.0,103.0,13.4,1505.2,325.6,-0.8,1.8,2470.52,13.28,0.048,326.0
2021-07-28T07:25:03,42.805,6.029,-0.017,0.022,0.013,106.0,104.0,102.0,13.4,1505.2,327.0,-0.7,1.8,2470.578,13.28,0.027,322.3
2021-07-28T07:28:03,42.805,6.029,-0.013,0.03,0.016,105.0,104.0,102.0,13.4,1505.2,327.7,-0.7,1.8,2470.545,13.28,0.032,336.6
2021-07-28T07:31:03,42.805,6.029,-0.011,0.016,0.025,104.0,105.0,103.0,13.4,1505.2,326.4,-0.7,1.8,2470.569,13.28,0.019,325.5
2021-07-28T07:34:03,42.805,6.029,0.014,0.035,0.012,104.0,105.0,103.0,13.4,1505.2,328.4,-0.8,1.8,2470.537,13.28,0.037,21.8
2021-07-28T07:37:03,42.805,6.029,-0.004,0.018,0.007,105.0,105.0,102.0,13.4,1505.2,329.8,-0.8,1.8,2470.61,13.28,0.018,347.5
2021-07-28T07:40:03,42.805,6.029,-0.021,0.032,0.031,105.0,104.0,102.0,13.4,1505.2,327.2,-0.7,1.8,2470.569,13.28,0.038,326.7
2021-07-28T07:43:03,42.805,6.029,-0.013,0.037,0.012,104.0,105.0,102.0,13.4,1505.2,326.3,-0.7,1.8,2470.572,13.28,0.039,340.6
2021-07-28T07:46:03,42.805,6.029,-0.003,0.022,0.004,104.0,104.0,103.0,13.4,1505.2,326.5,-0.8,1.8,2470.576,13.28,0.022,352.2
2021-07-28T07:49:03,42.805,6.029,-0.037,0.033,0.004,105.0,104.0,103.0,13.4,1505.2,326.8,-0.8,1.8,2470.532,13.28,0.049,311.7
2021-07-28T07:52:03,42.805,6.029,-0.009,0.014,0.036,104.0,105.0,102.0,13.4,1505.2,326.4,-0.7,1.8,2470.545,13.28,0.016,327.3
2021-07-28T07:55:03,42.805,6.029,-0.01,0.005,0.003,104.0,105.0,103.0,13.3,1505.2,327.7,-0.8,1.8,2470.583,13.28,0.011,296.6
2021-07-28T07:58:03,42.805,6.029,-0.02,0.034,0.018,105.0,104.0,103.0,13.4,1505.2,326.0,-0.7,1.8,2470.584,13.28,0.039,329.5
2021-07-28T08:04:03,42.805,6.029,-0.006,0.037,0.015,105.0,105.0,102.0,13.4,1505.2,325.0,-0.8,1.8,2470.605,13.28,0.037,350.8
2021-07-28T08:07:03,42.805,6.029,-0.016,0.016,-0.003,105.0,105.0,102.0,13.4,1505.2,330.6,-0.8,1.8,2470.65,13.28,0.022,315.0
2021-07-28T08:10:03,42.805,6.029,-0.006,0.016,0.025,104.0,106.0,101.0,13.4,1505.2,326.7,-0.7,1.8,2470.646,13.28,0.017,339.4
2021-07-28T08:13:03,42.805,6.029,-0.017,0.027,0.008,105.0,105.0,102.0,13.4,1505.2,326.6,-0.7,1.8,2470.617,13.28,0.031,327.8
2021-07-28T08:16:03,42.805,6.029,-0.003,0.027,-0.001,105.0,104.0,103.0,13.3,1505.2,329.9,-0.8,1.8,2470.623,13.28,0.027,353.7
2021-07-28T08:19:03,42.805,6.029,-0.038,0.023,0.025,105.0,105.0,103.0,13.4,1505.2,330.8,-0.7,1.8,2470.617,13.28,0.044,301.2
2021-07-28T08:22:03,42.805,6.029,0.003,0.011,0.0,104.0,104.0,102.0,13.4,1505.2,326.5,-0.8,1.8,2470.568,13.28,0.011,15.3
2021-07-28T08:25:03,42.805,6.029,-0.004,0.016,0.011,105.0,105.0,102.0,13.4,1505.2,327.1,-0.7,1.8,2470.577,13.28,0.016,346.0
2021-07-28T08:28:03,42.805,6.029,-0.015,0.02,0.028,103.0,104.0,102.0,13.4,1505.2,326.4,-0.8,1.8,2470.604,13.28,0.025,323.1
2021-07-28T08:31:03,42.805,6.029,-0.008,0.016,0.039,104.0,103.0,102.0,13.4,1505.2,328.9,-0.8,1.8,2470.578,13.28,0.017,333.4
2021-07-28T08:34:03,42.805,6.029,-0.002,0.029,0.039,104.0,104.0,101.0,13.4,1505.2,328.6,-0.8,1.9,2470.593,13.28,0.029,356.1
2021-07-28T08:37:03,42.805,6.029,0.004,0.032,-0.006,105.0,103.0,103.0,13.3,1505.2,327.4,-0.7,1.8,2470.558,13.28,0.032,7.1
2021-07-28T08:40:03,42.805,6.029,-0.019,0.009,0.026,104.0,104.0,102.0,13.4,1505.2,329.6,-0.7,1.8,2470.568,13.28,0.021,295.3
2021-07-28T08:43:03,42.805,6.029,-0.008,0.035,0.024,105.0,105.0,102.0,13.4,1505.2,325.7,-0.7,1.8,2470.593,13.28,0.035,347.1
2021-07-28T08:46:03,42.805,6.029,-0.008,0.021,-0.016,104.0,104.0,102.0,13.4,1505.2,329.2,-0.8,1.8,2470.597,13.28,0.022,339.1
2021-07-28T08:49:03,42.805,6.029,-0.019,0.031,0.013,104.0,104.0,102.0,13.4,1505.2,328.7,-0.7,1.8,2470.588,13.28,0.036,328.5
2021-07-28T08:52:03,42.805,6.029,-0.002,0.016,0.007,104.0,105.0,102.0,13.4,1505.2,327.5,-0.8,1.8,2470.606,13.28,0.016,352.9
2021-07-28T08:55:03,42.805,6.029,-0.014,0.03,0.026,104.0,104.0,103.0,13.4,1505.2,326.3,-0.7,1.9,2470.557,13.28,0.033,335.0
2021-07-28T08:58:03,42.805,6.029,-0.009,0.022,-0.012,104.0,105.0,102.0,13.3,1505.2,326.6,-0.7,1.8,2470.595,13.28,0.023,337.8
2021-07-28T09:04:03,42.805,6.029,-0.001,0.017,0.017,104.0,105.0,102.0,13.3,1505.2,328.4,-0.8,1.8,2470.622,13.28,0.017,356.6
2021-07-28T09:07:03,42.805,6.029,0.011,0.019,0.023,105.0,103.0,102.0,13.4,1505.2,330.7,-0.8,1.9,2470.574,13.28,0.021,30.1
2021-07-28T09:10:03,42.805,6.029,-0.028,0.01,-0.001,102.0,104.0,101.0,13.4,1505.2,327.1,-0.8,1.8,2470.623,13.28,0.029,289.6
2021-07-28T09:13:03,42.805,6.029,-0.017,0.002,-0.012,103.0,103.0,102.0,13.3,1505.2,326.4,-0.8,1.9,2470.64,13.28,0.017,276.7
2021-07-28T09:16:03,42.805,6.029,-0.007,0.01,-0.006,104.0,103.0,102.0,13.4,1505.2,327.2,-0.7,1.8,2470.613,13.28,0.012,325.0
2021-07-28T09:19:03,42.805,6.029,-0.013,0.021,-0.013,104.0,103.0,102.0,13.4,1505.2,330.4,-0.8,1.8,2470.625,13.28,0.024,328.2
2021-07-28T09:22:03,42.805,6.029,0.01,0.016,-0.021,103.0,104.0,102.0,13.3,1505.2,328.9,-0.8,1.8,2470.619,13.28,0.018,32.0
2021-07-28T09:25:03,42.805,6.029,-0.005,0.025,0.001,103.0,103.0,101.0,13.3,1505.2,329.9,-0.7,1.8,2470.642,13.28,0.025,348.7
2021-07-28T09:28:03,42.805,6.029,-0.02,0.032,0.017,103.0,104.0,102.0,13.4,1505.2,329.1,-0.8,1.8,2470.598,13.29,0.037,328.0
2021-07-28T09:31:03,42.805,6.029,-0.008,0.007,0.0,103.0,103.0,102.0,13.3,1505.2,330.6,-0.8,1.8,2470.604,13.28,0.01,311.2
2021-07-28T09:34:03,42.805,6.029,-0.012,0.011,-0.013,102.0,104.0,102.0,13.4,1505.2,326.0,-0.7,1.8,2470.621,13.28,0.016,312.5
2021-07-28T09:37:03,42.805,6.029,-0.013,0.013,0.034,103.0,103.0,101.0,13.4,1505.2,327.9,-0.8,1.8,2470.587,13.28,0.018,315.0
2021-07-28T09:40:03,42.805,6.029,-0.002,0.019,0.011,103.0,105.0,100.0,13.3,1505.2,329.5,-0.7,1.8,2470.625,13.28,0.019,354.0
2021-07-28T09:43:03,42.805,6.029,-0.03,0.036,-0.012,103.0,103.0,101.0,13.3,1505.2,328.5,-0.7,1.8,2470.607,13.28,0.046,320.2
2021-07-28T09:46:03,42.805,6.029,-0.004,0.029,0.009,104.0,105.0,100.0,13.4,1505.2,330.4,-0.7,1.9,2470.606,13.28,0.029,352.2
2021-07-28T09:49:03,42.805,6.029,-0.018,0.015,0.011,103.0,105.0,100.0,13.3,1505.2,326.7,-0.7,1.9,2470.659,13.28,0.023,309.8
2021-07-28T09:52:03,42.805,6.029,-0.003,0.029,0.029,103.0,103.0,101.0,13.4,1505.2,326.7,-0.8,1.8,2470.638,13.28,0.029,354.1
2021-07-28T09:55:03,42.805,6.029,-0.032,0.002,0.025,102.0,105.0,101.0,13.3,1505.2,329.6,-0.7,1.8,2470.648,13.28,0.032,273.6
2021-07-28T09:58:03,42.805,6.029,-0.025,0.027,0.02,104.0,102.0,102.0,13.4,1505.2,328.1,-0.8,1.8,2470.57,13.28,0.036,317.2